This demonstration page uses our WeatherBlox Daily Observations layout. Learn more.

Left ArrowRight Arrow

41.86663, -103.66717

Hourly Observations for June 11, 2016

Temp ( °F °C ) Dew Point ( °F °C ) Humidity (%) Winds ( mph kmh ) Pressure ( in mb ) Visibility ( mi km ) Precip ( " mm )
12:53 am 00:53 Clear 84 28.9 41 5 22 22 S 21 33 29.75 1008 10 16 0.00 0.00
1:26 am 01:26 Hazy 84 29 39 4 20 20 S 25 41 29.62 1003 6 10 0.00 0.00
1:53 am 01:53 Clear 85 29.4 38 3.3 19 19 S 28 44 29.70 1006 10 16 0.00 0.00
2:53 am 02:53 Clear 84 28.9 39 3.9 20 20 S 16 26 29.70 1006 10 16 0.00 0.00
3:53 am 03:53 Clear 81 27.2 41 5 24 24 Calm 29.71 1006 10 16 0.00 0.00
4:53 am 04:53 Clear 72 22.2 46 7.8 40 40 E 6 9 29.74 1007 10 16 0.00 0.00
5:53 am 05:53 Sunny 72 22.2 47 8.3 41 41 ESE 9 15 29.77 1008 10 16 0.00 0.00
6:53 am 06:53 Sunny 71 21.7 50 10 47 47 W 7 11 29.80 1009 10 16 0.00 0.00
7:53 am 07:53 Sunny 77 25 52 11.1 42 42 NW 3 6 29.80 1009 10 16 0.00 0.00
8:26 am 08:26 Mostly Sunny 81 27 52 11 37 37 undefined N/A 29.68 1005 10 16 0.00 0.00
8:53 am 08:53 Sunny 83 28.3 51 10.6 33 33 Calm 29.79 1009 10 16 0.00 0.00
9:53 am 09:53 Sunny 89 31.7 53 11.7 29 29 S 9 15 29.77 1008 10 16 0.00 0.00
10:53 am 10:53 Sunny 93 33.9 53 11.7 26 26 SE 13 20 29.75 1008 10 16 0.00 0.00
11:53 am 11:53 Sunny 95 35 51 10.6 23 23 SE 17 28 29.75 1007 10 16 0.00 0.00
12:53 pm 12:53 Sunny 96 35.6 47 8.3 19 19 SSE 21 33 29.72 1007 10 16 0.00 0.00
1:53 pm 13:53 Sunny 97 36.1 43 6.1 16 16 S 22 35 29.70 1006 10 16 0.00 0.00
2:53 pm 14:53 Sunny 98 36.7 46 7.8 17 17 SSE 17 28 29.69 1006 10 16 0.00 0.00
3:53 pm 15:53 Sunny 97 36.1 40 4.4 14 14 SSE 20 31 29.68 1005 10 16 0.00 0.00
4:53 pm 16:53 Sunny 95 35 43 6.1 17 17 SE 17 28 29.69 1005 10 16 0.00 0.00
5:53 pm 17:53 Sunny 92 33.3 49 9.4 23 23 SE 10 17 29.68 1005 10 16 0.00 0.00
6:53 pm 18:53 Sunny 90 32.2 52 11.1 27 27 SE 12 19 29.69 1005 10 16 0.00 0.00
7:53 pm 19:53 Sunny 86 30 53 11.7 32 32 SE 7 11 29.72 1006 10 16 0.00 0.00
8:53 pm 20:53 Clear 79 26.1 55 12.8 44 44 ESE 6 9 29.73 1007 10 16 0.00 0.00
9:53 pm 21:53 Mostly Clear 78 25.6 49 9.4 36 36 NNW 9 15 29.78 1008 10 16 0.00 0.00
10:53 pm 22:53 Clear 72 22.2 49 9.4 44 44 WSW 3 6 29.79 1009 10 16 0.00 0.00
11:53 pm 23:53 Clear 70 21.1 50 10 49 49 Calm 29.79 1009 10 16 0.00 0.00

Powered by AerisWeather